CZ-6A DEB, 60981

Orbit data source: Space-Track

CZ-6A DEB, 60981 is space debris in LEO originally from a launch on Tue, 06 Aug 2024 UTC launched from the Taiyaun Space Center, China (TSC). Debris objects in space refer to the collection of defunct objects orbiting the Earth. Examples of debris include non-operational satellites, rocket bodies, and fragments generated from explosions, collisions, or faulty payload assembly.

Loading next visibility...
Identifier
60981, 2024-140MG
Orbit
LEO
Country
Flag of CNCN / PRC
Related business
Manufacturer
SAST
Mission
Spacecraft
Bus & Motor
Unknown
Mass
Unknown
Launch date (UTC)
2024-08-06 (2 years ago)
Launch vehicle
Unknown
Launch site
Taiyaun Space Center, China (TSC)
Object type
Payload
Rocket body
Debris
Shape & HBR
Unknown shape, 0.1 m
Radar Cross Section
Medium (>0.1 m² and <1 m²)

Expand to show TLE details & history
Last TLE update: 14 hours ago

TLE from 14 hours ago
0 CZ-6A DEB
1 60981U 24140MG  26171.28543573  .00000595  00000-0  31983-3 0  9995
2 60981  88.8480 263.7594 0105936 194.5648 165.2478 14.08839950 94439
Epoch: 2026-06-20T06:51Z
TLE epoch observation values (Epoch: 2026-06-20T06:51:01.647Z)
Latitude
0.00001°
Longitude
-107.49971°
Altitude
940.633 km
Speed
7.343 km/s
True Right ascension
17h 35m 02s
True Declination
0° 00' 00"
Sunlit
Object was in full shadow at epoch
Visualization orbit readout
Latitude
Unknown
Longitude
Unknown
Altitude
Unknown
Speed
Unknown
Apparent Right ascension
Unknown
Apparent Declination
Unknown
Sunlit
N/A
Visualization observer readout
Local Sidereal Time
07:23:57
Azimuth
Unknown
Elevation
Unknown
Doppler factor
Unknown
Orbital elements
Apogee altitude
936.993 km
Perigee altitude
783.631 km
Semi-major axis
7,238.449 km
Eccentricity
0.01059
Inclination
88.848°
RAAN
263.7594°
Arg. of periapsis
194.5648°
True anomaly
165.553°
Mean anomaly
165.2478°
Eccentric anomaly
165.40079°
Mean motion
3.52432 °/min
Orbital period
102.15 mins
BSTAR
0.00031983
Loading maneuver chart data...
Computing Atmospheric mass density...
Loading historical data...
Loading historical data...
Loading historical data...
Loading historical data...
Loading historical data...
Loading historical data...
Loading historical data...

Documentation

Showing up to 5 results
|